Location: Lake Arresoe
(56.0000°N, 12.5000°E)
Time: 12:03:50
(UTC+01:00)

Cosmos 1674 - Visible Passes

Search period start: 18 December 2017 00:00
Search period end: 28 December 2017 00:00
Orbit: 498 x 521 km, 82.5° (Epoch: 17 December)

Date Brightness Start Highest point End Pass type
(mag) Time Alt. Az. Time Alt. Az. Time Alt. Az.
18 Dec 5.6 06:51:06 10° NE 06:51:49 10° NE 06:52:32 10° ENE visible
20 Dec 3.9 07:50:41 10° N 07:54:20 42° ENE 07:57:57 10° SE visible
21 Dec 4.2 07:33:49 10° N 07:37:22 35° ENE 07:40:51 10° SE visible
22 Dec 4.5 07:16:58 10° N 07:20:21 29° ENE 07:23:42 10° SE visible
23 Dec 4.8 07:00:10 10° N 07:03:21 25° ENE 07:06:30 10° ESE visible
24 Dec 5.0 06:43:22 10° NNE 06:46:19 21° ENE 06:49:15 10° ESE visible
25 Dec 5.3 06:26:36 10° NNE 06:29:17 18° ENE 06:31:55 10° ESE visible
26 Dec 5.5 06:09:55 10° NNE 06:12:13 15° ENE 06:14:31 10° E visible
26 Dec 2.6 07:44:34 10° NNW 07:48:21 77° W 07:52:06 10° S visible
27 Dec 5.6 05:53:18 10° NNE 05:55:09 13° ENE 05:57:00 10° E visible
27 Dec 2.7 07:27:36 10° NNW 07:31:25 86° E 07:35:10 10° SSE visible
